Temperature
26 23 22 22 23 24 24 23 22 22 22 20 19 18 18 18 18 18 18 18 18 18 18 18 18 18 18 18 18 18 18 17 17 17 16 16 16 15 15 15 14 14 14 14
23 23 24 25 25 25 24 23 21 21 22 20 18 18 18 17 17 17 18 18 19 18 18 18 18 18 18 18 18 17 17 17 16 16 16 15 15 14 14 14 14 13 13 13
24 24 26 26 25 24 23 22 22 21 20 20 19 17 17 17 17 18 19 19 19 19 19 19 19 18 18 18 18 17 17 16 16 15 15 15 14 14 14 14 13 13 13 13
24 25 26 25 25 24 23 23 23 22 19 17 18 17 17 16 17 18 19 19 19 19 19 19 19 19 19 18 18 17 17 16 15 15 14 14 14 13 13 12 12 12 12 13
23 24 24 25 26 25 23 24 23 21 18 17 17 17 16 16 16 17 18 19 20 20 20 20 19 19 19 18 18 17 16 16 15 14 14 14 13 12 12 12 12 12 12 12
24 25 25 25 26 26 24 22 20 18 17 17 17 17 17 15 16 17 18 20 20 20 20 20 19 19 18 18 17 17 16 15 15 14 13 13 12 12 12 11 11 11 11 12
23 25 25 26 25 24 23 20 19 19 17 17 16 17 16 17 17 18 18 20 20 21 20 20 19 19 18 18 17 16 16 15 14 13 13 12 12 11 11 11 11 11 11 11
22 23 25 27 26 25 23 21 20 20 18 16 17 17 16 18 18 19 19 20 20 20 20 20 19 18 18 17 17 16 15 14 14 13 12 12 12 11 11 11 10 10 10 10
22 23 26 27 28 26 25 22 20 18 17 16 17 17 18 19 19 19 20 20 20 20 19 19 19 18 17 17 16 15 14 14 13 12 12 11 11 11 10 10 10 10 10 10
23 24 25 26 26 26 25 23 19 18 18 18 18 17 17 19 19 19 19 20 20 19 19 19 18 18 17 16 15 15 14 13 12 12 11 11 11 10 10 10 10 10 9 9
23 22 23 24 25 25 25 24 20 18 18 18 18 18 19 18 18 18 18 20 20 19 19 19 18 17 16 16 15 14 13 12 12 12 11 11 11 10 10 9 9 9 9 9
23 20 21 23 24 25 25 24 20 20 20 18 17 18 20 18 18 19 20 20 20 19 19 18 18 17 16 15 14 13 13 12 12 11 11 11 10 10 10 9 9 9 8 8
22 19 20 21 21 23 24 25 21 18 17 18 17 19 19 19 19 20 20 20 19 19 18 18 17 16 15 14 13 13 12 12 11 11 11 11 10 10 9 9 9 8 8 8
22 19 20 21 21 22 24 25 23 20 18 19 19 19 19 18 18 19 20 20 19 18 18 17 16 15 14 14 13 12 12 12 11 11 11 10 10 10 9 9 9 8 8 8
21 22 23 23 23 25 25 25 24 22 20 19 20 18 18 17 17 19 20 19 18 17 17 16 15 15 14 13 13 12 12 11 11 11 10 10 10 9 9 9 8 8 8 8
20 22 23 22 24 24 24 25 25 24 23 21 20 19 18 19 20 19 19 18 17 17 17 16 15 14 14 13 12 12 12 11 11 10 10 10 9 9 9 8 8 8 8 8
20 21 21 20 21 22 22 24 24 24 23 21 20 19 18 18 18 18 18 18 18 17 17 16 15 14 13 13 12 12 11 11 11 10 10 9 9 9 8 8 8 8 8 8
20 19 18 19 20 22 21 23 24 23 22 21 19 18 18 18 18 18 19 18 18 17 16 16 15 14 13 12 12 11 11 11 10 10 10 9 9 9 8 8 8 8 8 8
19 19 19 18 20 21 22 23 23 21 20 20 19 18 18 18 17 17 18 18 18 17 16 15 14 14 13 12 12 11 11 10 10 10 9 9 9 8 8 8 8 8 8 8
19 19 19 19 20 20 21 23 24 21 20 21 20 19 19 17 15 16 18 18 17 17 16 15 14 14 13 12 11 11 10 10 10 9 9 9 8 8 8 8 8 8 8 8
21 20 19 19 19 20 21 24 24 21 20 21 22 22 21 19 18 20 19 18 17 17 16 15 14 13 13 12 11 11 10 10 9 9 9 9 9 8 8 8 8 8 8 8
20 19 19 18 19 20 22 24 22 21 23 23 23 22 22 21 20 19 19 18 17 17 16 15 14 13 13 12 11 10 10 10 9 9 9 9 9 8 8 8 8 8 8 8
20 19 18 18 19 22 25 25 26 25 24 23 23 22 22 21 20 19 19 18 17 17 16 15 14 13 12 12 11 10 10 10 9 9 9 9 9 8 8 8 8 8 8 8
20 21 20 20 20 22 25 26 25 25 25 24 23 23 22 21 21 20 19 18 17 17 16 15 14 13 12 12 11 10 10 9 9 9 9 9 8 8 8 8 8 8 8 8
20 21 20 20 20 23 25 26 26 25 25 24 23 23 22 22 21 20 19 18 18 17 16 15 14 13 12 12 11 10 10 9 9 9 9 9 8 8 8 8 8 8 8 8
20 21 20 20 22 20 24 26 25 25 25 24 23 23 22 22 21 20 20 19 18 17 16 15 14 13 12 12 11 10 10 9 9 9 9 8 8 8 8 8 9 9 8 8
Wind_Speed
0 2 4 7 6 5 1 1 1 0 3 7 7 5 3 4 4 1 2 5 6 6 7 8 8 8 7 5 5 5 5 3 3 2 2 2 3 4 4 3 4 3 3 3
4 4 9 6 3 1 2 1 1 1 3 4 6 6 2 2 1 4 5 7 8 7 6 7 8 8 7 6 6 6 5 4 3 2 1 1 1 2 2 2 4 4 5 5
4 6 6 4 2 2 1 4 6 4 4 4 4 2 2 2 3 5 7 8 9 11 10 9 8 8 7 7 7 7 7 5 4 3 2 2 2 3 4 3 3 4 7 8
2 4 4 6 4 3 4 6 8 8 6 2 1 2 4 3 4 5 7 7 9 10 9 8 8 8 8 7 6 6 6 5 4 3 2 2 1 2 3 3 4 6 7 7
4 3 3 4 5 4 5 5 7 8 6 4 2 1 5 2 5 6 7 8 9 10 10 10 8 7 6 5 5 5 5 4 3 3 3 2 2 3 3 3 5 6 6 6
4 4 4 4 2 7 10 9 7 6 5 3 1 0 5 4 6 5 6 7 8 8 7 5 4 4 3 3 4 4 5 3 3 3 2 2 3 4 4 4 5 5 4 5
7 5 2 2 3 3 6 6 4 5 5 1 2 1 7 7 7 8 8 7 7 5 5 5 5 4 4 5 4 4 4 2 2 2 2 3 4 4 4 4 4 4 4 4
3 6 4 1 3 3 2 8 6 3 3 1 2 3 7 8 6 8 9 7 4 4 6 6 6 6 5 5 4 3 3 2 2 3 4 4 4 3 3 4 4 5 4 5
3 5 6 3 0 4 2 1 7 7 4 3 2 4 8 6 6 5 5 5 6 7 7 7 7 6 5 4 3 3 3 2 3 4 4 4 3 4 5 5 5 5 5 5
4 3 6 4 6 6 4 5 6 5 4 2 2 4 5 7 6 4 6 7 7 7 6 6 5 5 4 3 3 3 3 3 4 4 4 3 4 5 5 5 6 6 6 6
3 2 6 5 2 1 2 3 6 4 6 6 4 6 7 10 9 9 8 9 9 8 7 6 5 4 3 2 2 2 3 3 4 5 4 5 5 6 6 6 7 7 7 7
2 5 2 5 6 2 3 4 6 4 0 4 5 5 3 9 10 10 9 8 8 8 7 6 5 3 2 2 3 4 4 5 5 5 5 5 6 6 6 7 8 7 8 8
4 6 4 9 10 6 2 2 6 7 5 4 5 4 2 7 8 8 9 9 8 8 6 4 3 3 3 4 5 5 6 6 6 5 5 5 6 6 7 8 8 8 8 8
6 5 5 5 8 7 5 2 5 7 5 4 7 8 6 8 8 8 9 10 9 8 6 4 3 3 4 5 6 6 7 6 6 5 5 6 7 7 8 8 8 8 8 8
5 2 2 5 6 6 6 4 3 5 8 8 8 11 11 11 11 10 9 8 7 7 6 5 3 4 4 5 6 6 6 6 5 5 6 7 8 7 7 8 8 8 8 9
3 3 2 6 8 9 7 5 0 3 5 7 9 7 9 8 6 6 7 8 8 6 5 4 3 3 4 5 6 5 5 6 4 5 7 7 7 7 7 8 8 8 9 9
3 5 2 4 8 7 6 4 2 3 5 8 8 8 7 6 7 8 8 8 8 7 6 5 4 4 5 6 5 5 5 5 5 6 7 7 7 7 8 9 9 9 9 9
7 5 4 1 6 3 8 5 4 6 3 6 9 8 9 8 7 7 9 9 8 7 6 5 4 4 5 4 4 4 4 5 5 6 7 7 7 8 9 9 10 10 9 9
7 8 4 3 2 6 8 5 3 7 3 5 10 9 8 8 5 2 7 8 9 8 6 5 5 4 3 4 4 4 5 5 6 6 7 7 8 9 9 10 11 10 9 9
5 6 6 4 3 6 8 5 4 9 2 5 9 10 10 9 2 5 8 8 8 7 5 4 3 2 3 4 4 3 5 6 6 7 7 8 8 9 10 11 11 9 9 10
2 2 3 5 6 7 8 5 4 2 8 9 10 10 9 9 8 7 8 8 8 7 6 4 2 2 4 4 3 4 6 6 7 7 7 8 9 9 10 9 8 10 10 10
5 3 4 4 3 7 7 4 6 10 7 9 10 10 10 9 8 9 10 10 9 7 5 4 2 3 4 4 3 5 6 6 6 6 8 9 9 9 10 9 10 10 9 9
3 7 6 7 8 9 8 10 9 9 9 10 10 10 11 10 10 10 10 9 8 7 6 4 3 3 4 4 3 5 6 5 6 7 8 9 10 9 9 9 10 10 8 7
6 2 2 4 8 9 9 8 6 9 11 11 11 12 12 11 11 11 9 8 7 6 5 4 3 3 5 5 5 5 5 5 5 7 8 8 9 10 10 8 7 7 7 7
8 4 3 5 8 7 6 6 8 9 9 10 10 12 14 13 11 11 10 9 8 7 5 5 4 4 6 5 5 5 4 4 5 7 8 8 8 9 9 9 8 8 8 7
6 5 5 7 9 7 8 8 8 9 10 12 12 11 11 12 12 12 11 10 9 8 6 5 5 5 5 5 5 5 4 3 5 6 7 7 8 8 8 9 10 11 10 11
Wind_Direction
32 109 244 236 197 190 174 104 103 129 47 70 82 79 42 47 61 77 162 160 158 164 172 169 171 168 164 163 152 147 138 128 103 70 56 31 356 337 339 329 317 314 303 298
9 287 254 245 229 112 60 123 171 73 66 82 93 82 57 79 191 231 214 192 181 183 187 190 191 188 185 183 175 168 165 158 144 137 141 162 239 295 305 333 340 326 310 299
195 257 288 318 331 46 280 190 189 152 95 67 99 41 330 261 234 227 215 203 190 190 197 202 198 194 191 194 189 179 176 167 163 146 106 38 17 354 352 343 328 317 311 300
288 281 326 328 299 182 226 209 181 159 131 84 128 202 254 257 262 235 219 209 204 204 202 207 204 197 196 199 185 173 170 166 167 153 141 149 182 275 269 275 290 305 311 311
245 247 281 275 256 174 194 150 133 135 128 101 19 127 275 274 254 248 241 229 214 208 202 205 204 193 188 178 165 161 156 164 175 171 172 179 233 246 268 293 311 315 319 323
252 237 213 221 223 149 124 92 71 65 80 69 312 138 278 238 233 256 250 237 221 205 195 186 167 145 133 119 123 136 144 170 196 196 207 217 248 264 286 304 310 312 314 318
337 328 287 167 77 98 109 101 55 17 25 298 285 266 263 257 241 236 250 244 226 196 166 152 137 117 111 111 117 130 144 180 222 226 254 260 259 259 264 274 279 287 296 301
346 318 300 264 165 172 150 131 146 180 191 242 296 254 267 276 262 241 237 234 198 149 138 133 130 127 128 128 128 138 154 198 244 257 269 273 275 256 254 258 258 268 269 272
214 278 300 296 41 119 83 99 152 127 103 106 260 287 298 283 274 240 203 164 150 140 136 135 139 141 143 137 148 160 169 219 258 265 271 277 270 258 262 270 269 270 270 277
183 266 315 335 36 21 120 133 85 94 123 129 225 236 231 232 222 197 158 151 150 148 144 143 150 156 161 164 173 180 192 226 252 264 263 256 258 262 266 272 278 277 277 279
101 116 326 2 39 299 21 64 100 109 139 142 191 253 223 196 186 166 168 169 166 162 161 165 168 171 175 180 194 220 245 262 273 267 259 263 266 267 269 268 268 268 270 273
60 109 339 296 288 253 178 172 138 128 227 138 147 263 270 164 166 161 170 176 171 166 169 172 175 183 202 228 249 254 259 264 259 253 253 259 265 269 271 269 267 265 265 266
94 89 35 347 341 343 327 191 147 130 115 124 137 231 237 152 159 168 169 173 174 175 174 176 189 217 240 250 259 261 261 260 259 257 262 271 274 272 269 268 268 266 263 264
111 103 149 202 246 266 288 273 155 125 136 169 176 176 188 176 176 187 184 184 184 181 179 184 213 249 258 259 261 266 270 266 264 263 270 276 275 270 268 268 269 268 266 264
98 126 245 261 288 321 313 293 191 160 172 166 182 173 196 195 192 195 191 183 170 170 176 183 205 242 260 267 275 276 275 273 269 271 277 276 276 276 275 277 276 275 272 274
103 148 7 328 320 330 323 316 14 137 139 133 135 178 208 198 184 180 172 158 156 169 178 184 207 248 269 272 274 280 278 276 273 279 281 283 287 289 288 285 282 279 277 275
148 133 103 292 313 351 319 279 172 146 154 152 169 188 178 170 177 172 161 156 168 180 186 201 232 251 262 264 264 268 271 279 288 290 291 294 297 296 291 293 293 285 281 277
156 135 139 229 8 312 260 276 127 106 65 128 131 149 164 168 167 175 174 169 180 186 195 221 240 254 261 263 269 275 285 294 295 298 300 303 302 298 297 295 291 287 281 278
158 147 144 148 223 274 295 300 155 122 63 134 136 150 156 147 112 232 209 186 186 192 199 214 225 231 254 272 274 290 303 303 302 302 303 301 300 300 303 301 296 290 286 284
102 119 140 165 197 246 251 258 142 102 140 207 156 157 160 149 138 248 220 192 188 191 194 204 219 233 277 279 277 297 302 303 298 295 295 296 297 299 301 297 293 289 284 282
39 54 169 205 224 255 239 224 110 134 228 206 176 168 163 172 197 208 187 188 188 185 187 180 184 252 274 277 278 294 296 290 284 290 297 299 299 300 297 293 290 291 291 289
192 194 222 185 206 258 239 196 187 214 199 182 178 175 172 185 189 175 173 181 180 177 180 177 190 265 279 278 274 288 287 279 286 297 302 302 302 306 311 301 299 297 292 292
194 191 193 190 216 236 225 209 211 176 174 185 180 180 168 169 175 174 177 179 182 182 193 198 204 261 286 280 263 272 275 281 296 307 308 306 308 306 301 298 300 302 298 291
289 228 183 265 268 256 247 236 209 184 185 185 176 174 171 172 175 173 173 180 184 192 198 198 208 259 281 278 272 256 267 280 298 306 306 306 310 310 308 303 297 296 296 292
256 294 314 293 287 305 291 238 214 202 187 176 175 179 177 169 171 172 176 183 189 195 200 194 204 236 262 274 273 266 267 284 303 305 304 307 306 304 308 307 299 294 283 270
244 228 218 247 251 227 247 249 221 198 196 189 183 184 182 173 173 171 177 183 185 189 189 194 211 234 259 268 265 265 257 271 298 306 309 308 308 308 307 309 312 303 290 286
Height
1504 1510 1514 1511 1509 1511 1512 1516 1520 1519 1515 1521 1527 1530 1530 1528 1530 1533 1534 1534 1534 1534 1534 1534 1534 1534 1534 1533 1533 1532 1532 1531 1530 1529 1527 1525 1523 1521 1520 1518 1516 1515 1514 1512
1508 1512 1503 1501 1502 1505 1509 1517 1520 1518 1516 1522 1529 1531 1530 1528 1530 1532 1532 1532 1533 1533 1532 1532 1532 1531 1531 1531 1531 1530 1529 1528 1527 1525 1524 1522 1520 1518 1516 1515 1513 1512 1510 1508
1510 1505 1498 1499 1502 1507 1510 1516 1518 1522 1523 1525 1530 1537 1533 1529 1528 1529 1530 1530 1530 1530 1530 1530 1530 1529 1529 1529 1528 1528 1526 1525 1524 1523 1521 1519 1517 1515 1513 1511 1509 1507 1506 1504
1504 1498 1498 1499 1501 1504 1514 1505 1508 1516 1529 1540 1535 1547 1538 1532 1530 1527 1527 1527 1528 1528 1528 1528 1528 1528 1528 1527 1527 1526 1524 1523 1522 1520 1518 1516 1513 1510 1508 1506 1504 1503 1501 1500
1504 1498 1498 1500 1496 1498 1504 1500 1507 1517 1530 1541 1541 1545 1541 1533 1531 1526 1525 1525 1526 1526 1526 1526 1526 1527 1527 1526 1525 1524 1523 1521 1520 1518 1515 1513 1510 1507 1505 1503 1500 1499 1497 1496
1497 1493 1493 1493 1490 1492 1498 1507 1517 1525 1534 1549 1544 1546 1542 1533 1528 1524 1523 1523 1523 1523 1524 1525 1526 1526 1525 1525 1524 1522 1521 1519 1517 1515 1513 1510 1507 1504 1502 1499 1497 1495 1494 1492
1504 1495 1490 1489 1494 1497 1500 1519 1538 1542 1552 1553 1544 1543 1539 1523 1520 1520 1520 1521 1521 1522 1522 1523 1524 1524 1524 1523 1522 1520 1519 1517 1514 1512 1510 1507 1504 1501 1498 1496 1493 1491 1489 1487
1518 1514 1493 1488 1491 1497 1500 1511 1534 1545 1552 1553 1545 1545 1533 1518 1517 1517 1518 1519 1520 1521 1521 1522 1522 1522 1522 1520 1519 1517 1515 1513 1511 1509 1506 1503 1501 1498 1495 1493 1490 1487 1485 1483
1517 1512 1490 1485 1484 1488 1498 1507 1510 1531 1543 1554 1549 1541 1528 1517 1516 1515 1517 1518 1518 1519 1520 1520 1520 1520 1519 1518 1516 1514 1512 1510 1508 1505 1502 1500 1497 1495 1491 1488 1486 1483 1481 1478
1505 1510 1497 1488 1486 1488 1492 1498 1514 1530 1547 1553 1547 1542 1537 1521 1518 1516 1516 1517 1518 1519 1519 1519 1518 1518 1516 1515 1513 1511 1509 1507 1504 1501 1499 1496 1494 1491 1487 1484 1481 1479 1477 1474
1500 1511 1506 1497 1497 1498 1496 1499 1511 1525 1530 1546 1552 1543 1515 1515 1514 1515 1515 1516 1516 1517 1517 1517 1516 1515 1514 1512 1510 1508 1506 1503 1500 1498 1495 1492 1489 1486 1483 1480 1477 1475 1472 1470
1499 1511 1517 1505 1493 1489 1491 1496 1507 1524 1527 1532 1542 1539 1507 1509 1510 1511 1513 1514 1514 1515 1515 1514 1513 1512 1511 1509 1507 1504 1502 1499 1496 1494 1491 1488 1485 1482 1478 1475 1472 1470 1467 1465
1498 1514 1528 1523 1513 1498 1493 1491 1498 1511 1523 1531 1540 1533 1510 1509 1509 1510 1511 1512 1512 1512 1512 1512 1511 1509 1508 1505 1503 1500 1498 1495 1492 1490 1487 1484 1480 1477 1474 1471 1467 1465 1462 1459
1494 1511 1523 1529 1521 1505 1498 1492 1493 1505 1522 1522 1522 1520 1513 1510 1509 1509 1509 1509 1509 1510 1510 1509 1508 1506 1504 1502 1499 1496 1494 1491 1488 1485 1482 1479 1475 1472 1468 1465 1462 1459 1456 1453
1495 1507 1504 1503 1497 1493 1492 1490 1489 1496 1503 1513 1512 1513 1510 1507 1506 1506 1506 1507 1507 1508 1507 1506 1505 1503 1500 1498 1495 1493 1490 1487 1484 1481 1477 1474 1470 1466 1463 1459 1456 1453 1450 1447
1497 1503 1503 1505 1495 1493 1492 1488 1487 1489 1492 1499 1505 1508 1502 1502 1503 1504 1504 1505 1505 1505 1505 1503 1501 1499 1497 1494 1491 1489 1486 1483 1480 1476 1473 1469 1465 1461 1457 1453 1450 1446 1443 1440
1499 1503 1510 1515 1503 1499 1504 1490 1487 1488 1487 1493 1502 1502 1499 1502 1502 1502 1502 1502 1502 1502 1501 1500 1498 1495 1493 1490 1487 1484 1482 1479 1475 1472 1468 1464 1460 1455 1451 1448 1444 1440 1437 1434
1496 1503 1512 1515 1513 1517 1504 1482 1481 1487 1488 1486 1490 1494 1496 1498 1499 1500 1500 1499 1499 1498 1497 1496 1494 1491 1489 1486 1484 1481 1478 1474 1471 1467 1463 1459 1454 1450 1446 1442 1438 1435 1431 1428
1485 1497 1509 1517 1518 1512 1495 1483 1482 1489 1495 1489 1491 1493 1495 1496 1498 1498 1497 1496 1495 1494 1493 1492 1490 1488 1485 1482 1480 1477 1474 1470 1467 1463 1458 1454 1449 1444 1440 1436 1433 1429 1426 1423
1484 1490 1504 1512 1516 1518 1498 1481 1478 1485 1498 1489 1487 1489 1491 1494 1499 1496 1493 1492 1492 1491 1490 1488 1486 1484 1481 1479 1476 1473 1469 1466 1462 1458 1454 1449 1445 1440 1435 1431 1428 1425 1421 1417
1494 1498 1504 1509 1512 1503 1483 1476 1478 1496 1494 1483 1482 1483 1485 1486 1488 1488 1488 1489 1488 1488 1486 1485 1483 1480 1478 1475 1472 1469 1466 1462 1458 1454 1449 1445 1440 1436 1431 1428 1424 1420 1417 1413
1497 1501 1503 1506 1510 1502 1474 1474 1479 1479 1473 1475 1477 1478 1479 1481 1482 1483 1484 1485 1485 1484 1483 1481 1479 1477 1474 1472 1468 1465 1461 1458 1454 1450 1445 1440 1436 1432 1428 1424 1420 1416 1412 1408
1489 1490 1491 1493 1491 1474 1468 1468 1467 1467 1468 1470 1472 1473 1475 1476 1477 1479 1480 1480 1480 1480 1479 1478 1476 1473 1471 1468 1465 1461 1458 1454 1450 1446 1441 1436 1432 1428 1425 1420 1416 1412 1408 1404
1482 1477 1479 1480 1474 1467 1464 1463 1463 1463 1463 1464 1466 1468 1470 1471 1472 1474 1475 1476 1476 1476 1475 1473 1472 1469 1467 1464 1461 1457 1454 1450 1446 1442 1437 1433 1429 1425 1421 1417 1413 1409 1405 1400
1479 1476 1477 1477 1468 1464 1461 1460 1459 1459 1460 1461 1462 1463 1464 1465 1467 1468 1469 1470 1471 1471 1470 1469 1468 1465 1463 1460 1457 1454 1450 1446 1442 1438 1433 1429 1425 1422 1418 1414 1410 1406 1402 1398
1472 1473 1475 1474 1464 1463 1459 1457 1456 1456 1455 1456 1457 1458 1459 1460 1461 1462 1463 1465 1465 1466 1466 1465 1463 1462 1459 1456 1453 1450 1447 1443 1438 1434 1430 1426 1422 1418 1415 1411 1407 1403 1399 1394